Location: Czekanka
(50.4925°N, 19.2643°E)
Time: 02:11:47
(UTC+00:00)

ADEOS II - Pass Details

Date: 27 September 2024
Orbit: 795 x 798 km, 98.7° (Epoch: 14 October)

Event Time Altitude Azimuth Distance (km) Brightness Sun altitude
Rises 02:43:04 0° 7° (N) 3,312 5.7 -18.6°
Reaches altitude 10° 02:45:48 10° 354° (N) 2,377 4.7 -18.2°
Maximum altitude 02:49:53 24° 302° (WNW) 1,612 3.3 -17.6°
Enters shadow 02:50:43 23° 288° (WNW) 1,650 3.3 -17.5°
